Location: Newark
(48.3453°N, 0.5589°E)
Time: 13:20:40
(UTC+00:00)

Transit 2A Rocket - All Passes

Search period start: 10 December 2019 00:00
Search period end: 20 December 2019 00:00
Orbit: 594 x 909 km, 66.7° (Epoch: 09 December)

Date Brightness Start Highest point End Pass type
(mag) Time Alt. Az. Time Alt. Az. Time Alt. Az.
10 Dec - 01:37:22 10° NW 01:41:37 44° WSW 01:46:07 10° S night (unlit)
10 Dec - 16:15:32 10° SSW 16:19:57 54° ESE 16:24:12 10° NE daylight
10 Dec - 17:59:03 10° W 18:02:45 25° NW 18:06:21 10° NNE visible
10 Dec - 23:12:50 10° NNW 23:16:09 20° NE 23:19:34 10° E night (unlit)
11 Dec - 00:54:43 10° NW 00:59:09 77° WSW 01:03:53 10° SSE night (unlit)
11 Dec - 02:40:12 10° W 02:40:59 10° WSW 02:41:47 10° WSW night (unlit)
11 Dec - 15:33:34 10° S 15:37:33 31° ESE 15:41:23 10° NE daylight
11 Dec - 17:15:50 10° WSW 17:20:00 38° NW 17:24:04 10° NNE visible
11 Dec - 19:02:54 10° NW 19:03:47 11° NNW 19:04:41 10° N visible
11 Dec - 22:30:44 10° N 22:33:14 15° NNE 22:35:48 10° ENE night (unlit)
12 Dec - 00:12:13 10° NNW 00:16:36 64° NE 00:21:18 10° SE night (unlit)
12 Dec - 01:55:37 10° WNW 01:58:45 19° WSW 02:02:02 10° SSW night (unlit)
12 Dec - 14:52:13 10° SSE 14:55:15 18° ESE 14:58:12 10° ENE daylight
12 Dec - 16:32:54 10° SW 16:37:21 62° NW 16:41:40 10° NNE visible
12 Dec - 18:18:25 10° WNW 18:20:46 14° NNW 18:23:07 10° N visible
12 Dec - 21:49:00 10° N 21:50:14 11° NNE 21:51:28 10° NE night (unlit)
12 Dec - 23:29:49 10° NNW 23:33:58 39° NE 23:38:22 10° ESE night (unlit)
13 Dec - 01:12:27 10° NW 01:16:26 31° WSW 01:20:38 10° S night (unlit)
13 Dec - 15:50:19 10° SSW 15:54:49 78° ESE 15:59:10 10° NE daylight
13 Dec - 17:34:37 10° W 17:37:51 20° NW 17:41:02 10° NNE visible
13 Dec - 22:47:31 10° NNW 22:51:15 26° NE 22:55:08 10° E night (unlit)
14 Dec - 00:29:40 10° NW 00:34:01 54° WSW 00:38:41 10° SSE night (unlit)
14 Dec - 15:08:05 10° S 15:12:22 44° ESE 15:16:30 10° NE daylight
14 Dec - 16:51:11 10° WSW 16:55:02 28° NW 16:58:49 10° NNE visible
14 Dec - 22:05:19 10° N 22:08:24 18° NE 22:11:36 10° E night (unlit)
14 Dec - 23:47:04 10° NW 23:51:32 89° NE 23:56:19 10° SE night (unlit)
15 Dec - 01:31:22 10° W 01:33:29 13° WSW 01:35:39 10° SW night (unlit)
15 Dec - 14:26:18 10° SSE 14:30:00 25° ESE 14:33:36 10° ENE daylight
15 Dec - 16:08:03 10° WSW 16:12:19 44° NW 16:16:29 10° NNE daylight
15 Dec - 17:54:28 10° NW 17:55:59 12° NNW 17:57:31 10° N visible
15 Dec - 21:23:17 10° N 21:25:28 13° NNE 21:27:42 10° ENE night (unlit)
15 Dec - 23:04:36 10° NNW 23:08:58 54° NE 23:13:36 10° SE night (unlit)
16 Dec - 00:47:41 10° WNW 00:51:13 23° WSW 00:54:56 10° SSW night (unlit)
16 Dec - 13:45:16 10° SE 13:47:44 15° ESE 13:50:09 10° ENE daylight
16 Dec - 15:25:15 10° SW 15:29:43 74° NW 15:34:03 10° NNE daylight
16 Dec - 17:10:20 10° WNW 17:13:00 16° NNW 17:15:39 10° N visible
16 Dec - 20:42:05 10° NNE 20:42:25 10° NNE 20:42:46 10° NNE night (unlit)
16 Dec - 22:22:14 10° NNW 22:26:18 34° NE 22:30:35 10° ESE night (unlit)
17 Dec - 00:04:41 10° NW 00:08:52 38° WSW 00:13:19 10° S night (unlit)
17 Dec - 14:42:46 10° SSW 14:47:12 64° ESE 14:51:30 10° NE daylight
17 Dec - 16:26:40 10° W 16:30:07 22° NW 16:33:31 10° NNE daylight
17 Dec - 21:39:58 10° NNW 21:43:32 23° NE 21:47:14 10° E night (unlit)
17 Dec - 23:21:59 10° NW 23:26:26 66° WSW 23:31:12 10° SSE night (unlit)
18 Dec - 14:00:41 10° S 14:04:47 36° ESE 14:08:46 10° NE daylight
18 Dec - 15:43:20 10° WSW 15:47:20 33° NW 15:51:16 10° NNE daylight
18 Dec - 20:57:48 10° N 21:00:39 16° NNE 21:03:35 10° ENE night (unlit)
18 Dec - 22:39:26 10° NNW 22:43:55 75° NE 22:48:42 10° SE night (unlit)
19 Dec - 00:23:10 10° WNW 00:25:58 16° WSW 00:28:53 10° SSW night (unlit)
19 Dec - 13:19:06 10° SSE 13:22:27 21° ESE 13:25:44 10° ENE daylight
19 Dec - 15:00:19 10° SW 15:04:39 52° NW 15:08:54 10° NNE daylight
19 Dec - 16:46:13 10° NW 16:48:11 13° NNW 16:50:10 10° N visible
19 Dec - 20:15:52 10° N 20:17:41 12° NNE 20:19:31 10° NE visible
19 Dec - 21:57:00 10° NNW 22:01:18 46° NE 22:05:53 10° ESE night (unlit)
19 Dec - 23:39:50 10° NW 23:43:40 27° WSW 23:47:45 10° S night (unlit)
